[[{"header":{"parameterUnit":"m.s-1","parameterCategory":1,"la1":30.2991,"la2":30.254,"lo1":-89.0895,"lo2":-89.0444,"dy":0.0017,"dx":0.0017,"nx":28,"ny":28,"refTime":"2024-09-27T21:00:00:Z","depth":0,"parameterNumber":2,"parameterNumberName":"U-component_of_WINDS"},"data":[0,0,0,0,0,0,0,0,0,0,0,0,0,0,0,0,0,0,0,0,0,0,0,0,0,0,0,0,0,0,0,0,0,0,0,0,0,0,0,0,0,0,0,0,0,0,0,0,0,0,0,0,0,0,0,0,0,0,5.6056,5.6058,0,5.6189,5.619,5.6192,5.6139,5.6135,5.6132,5.6129,5.6267,5.6273,5.628,0,0,0,0,0,0,0,0,0,0,0,0,0,5.576,5.5766,5.6056,5.6058,5.606,5.6188,5.619,5.6192,5.6139,5.6135,5.6132,5.6128,5.6265,5.6273,5.628,0,0,0,0,0,0,0,0,0,0,0,0,0,5.589,5.5768,5.6056,5.6049,5.6049,5.6188,5.619,5.6193,5.614,5.6135,5.6131,5.6126,5.6262,5.6272,5.6281,5.6436,0,0,5.6312,5.6316,0,0,0,0,0,0,0,0,5.5883,5.5901,5.6048,5.6049,5.605,5.6142,5.6136,5.6274,5.6141,5.6106,5.6129,5.6124,5.6229,5.6242,5.6277,5.6442,5.6448,5.6312,5.6318,5.6323,5.6325,0,0,0,0,0,0,0,5.5874,5.5895,5.6109,5.605,5.6052,5.604,5.6053,5.6162,5.6192,5.6108,5.6105,5.6121,5.6229,5.6267,5.628,5.645,5.6312,5.6321,5.6327,5.6331,5.675,5.6755,0,0,0,0,0,0,5.5864,5.5888,5.6104,5.6113,5.5953,5.6049,5.6064,5.6118,5.6191,5.6197,5.6125,5.6118,5.6253,5.6268,5.6284,5.647,5.6323,5.6332,5.6337,5.6745,5.6751,5.6757,0,0,0,0,0,0,5.5858,5.5884,5.6099,5.6,5.6026,5.6059,5.612,5.6123,5.6161,5.6203,5.6209,5.6158,5.625,5.627,5.6399,5.6474,5.6336,5.6345,5.6739,5.6747,5.6754,5.6844,0,0,0,0,0,0,5.585,5.5882,5.5941,5.6001,5.6031,5.6211,5.6124,5.6129,5.6178,5.617,5.6236,5.6243,5.6248,5.6384,5.6408,5.6485,5.6353,5.6732,5.6742,5.6752,5.6834,5.6854,5.687,0,0,0,0,0,5.584,5.5961,5.5944,5.597,5.6105,5.6215,5.6233,5.6236,5.6184,5.6244,5.6271,5.6241,5.6462,5.6398,5.6425,5.6506,5.6727,5.6739,5.6751,5.6826,5.685,5.687,0,0,0,0,0,0,5.5909,5.5969,5.5951,5.6095,5.6151,5.6206,5.6281,5.6261,5.6332,5.6322,5.6323,5.6339,5.6471,5.6501,5.6428,5.666,5.6587,5.6605,5.6635,5.6658,5.6676,5.6666,5.6361,0,0,0,0,0,5.5941,5.6025,5.6073,5.6196,5.6225,5.6248,5.6296,5.6294,5.6352,5.6375,5.6412,5.647,5.6552,5.6607,5.6685,5.6838,5.6852,5.6907,5.6925,5.694,5.6955,5.7039,5.7065,5.6795,5.6795,5.6795,0,0,5.6009,5.6051,5.6104,5.6211,5.6254,5.6341,5.6268,5.6364,5.6429,5.639,5.6513,5.6542,5.6607,5.6748,5.6813,5.6778,5.7033,5.6955,5.6966,5.6974,5.7054,5.7079,5.7102,5.6803,5.6802,5.6801,0,0,5.6176,5.6217,5.6324,5.6368,5.6433,5.6448,5.6474,5.6534,5.6551,5.6675,5.6647,5.6725,5.6867,5.6915,5.6957,5.7144,5.7119,5.7169,5.7264,5.7346,5.7367,5.7386,5.7453,5.7477,5.7184,5.7185,5.7185,0,5.6252,5.6382,5.6382,5.648,5.6528,5.6495,5.6604,5.6648,5.6736,5.677,5.6729,5.6907,5.6949,5.7101,5.7147,5.7182,5.7212,5.7162,5.7364,5.7383,5.74,5.7464,5.7489,5.719,5.719,5.7189,5.7189,0,5.6472,5.6563,5.6642,5.6727,5.6784,5.6887,5.6903,5.6961,5.6954,5.6973,5.71,5.7149,5.7236,5.7272,5.7266,5.7425,5.7401,5.7362,5.729,5.7432,5.7492,5.7516,5.7199,5.7197,5.7195,5.7193,0,0,5.6687,5.6771,5.68,5.6839,5.6909,5.6979,5.7081,5.7167,5.7217,5.7279,5.7365,5.7486,5.7451,5.75,5.7499,5.7571,5.7716,5.7523,5.7525,5.7558,5.7894,5.7923,5.7951,5.77,5.7704,5.7708,5.7889,0,5.686,5.7039,5.7042,5.7206,5.729,5.7261,5.735,5.7403,5.7425,5.75,5.7523,5.761,5.7556,5.7586,5.7655,5.7683,5.7784,5.767,5.7781,5.7785,5.7766,5.7983,5.8014,5.8182,5.7912,5.7916,5.7919,0,5.7086,5.7155,5.7328,5.7386,5.7422,5.7502,5.758,5.7652,5.7712,5.7723,5.7778,5.7766,5.7871,5.7795,5.794,5.7863,5.7908,5.7929,5.7936,5.7946,5.7861,5.8,5.8236,5.8261,5.7956,5.7953,5.7951,0,5.7227,5.7363,5.7484,5.7517,5.7588,5.7645,5.7678,5.7733,5.7784,5.7853,5.7887,5.7968,5.8012,5.8075,5.8086,5.803,5.8232,5.8157,5.8245,5.8245,5.8289,5.8286,5.8536,5.8318,5.8317,5.8317,5.8316,0,5.742,5.7527,5.7548,5.7622,5.7741,5.7744,5.7862,5.789,5.7939,5.8019,5.7999,5.8075,5.8084,5.8163,5.8172,5.8291,5.8311,5.8323,5.8325,5.8326,5.8324,5.8356,5.8344,5.8324,5.8322,5.8321,5.832,0,5.7598,5.7615,5.7745,5.7802,5.7818,5.7904,5.7952,5.8024,5.8043,5.8145,5.8169,5.8199,5.829,5.8307,5.8415,5.8421,5.8564,5.8553,5.8544,5.8543,5.863,5.8621,5.8909,5.8947,5.8703,5.8706,5.8708,0,5.772,5.7802,5.7867,5.7919,5.7954,5.8037,5.809,5.8096,5.8151,5.8226,5.8289,5.8378,5.8449,5.8597,5.8629,5.8712,5.8703,5.8798,5.8715,5.8714,5.8705,5.87,5.8709,5.8814,5.8817,5.8819,5.882,0,5.7937,5.7941,5.8017,5.8096,5.8159,5.8222,5.8282,5.8325,5.8339,5.8403,5.8496,5.8551,5.8661,5.875,5.8832,5.8866,5.8847,5.8846,5.8871,5.8873,5.8864,5.8871,5.8587,5.884,5.8838,5.8836,5.8835,5.8834,5.8091,5.8162,5.8219,5.8304,5.8349,5.8406,5.8476,5.8504,5.8581,5.867,5.8669,5.8771,5.883,5.8938,5.8978,5.9058,5.9028,5.9064,5.9073,5.9082,5.909,5.8851,5.9073,5.9072,5.9072,5.9071,5.9071,0,5.8306,5.8341,5.842,5.8503,5.8571,5.8545,5.861,5.8668,5.8758,5.8814,5.8884,5.8991,5.9078,5.9117,5.9202,5.9259,5.9252,5.9281,5.9277,5.9285,5.9112,5.9082,5.9285,5.9285,5.9285,5.9285,5.9285,5.9285,5.8426,5.8546,5.8557,5.8699,5.8734,5.8833,5.8872,5.8924,5.8969,5.9089,5.916,5.9185,5.9234,5.9323,5.9401,5.941,5.9443,5.9477,5.9482,5.9319,5.9297,5.9277,5.9249,5.9483,5.9484,5.9648,5.965,5.9651]},{"header":{"parameterUnit":"m.s-1","parameterCategory":1,"la1":30.2991,"la2":30.254,"lo1":-89.0895,"lo2":-89.0444,"dy":0.0017,"dx":0.0017,"nx":28,"ny":28,"refTime":"2024-09-27T21:00:00:Z","depth":0,"parameterNumber":3,"parameterNumberName":"V-component_of_WINDS"},"data":[0,0,0,0,0,0,0,0,0,0,0,0,0,0,0,0,0,0,0,0,0,0,0,0,0,0,0,0,0,0,0,0,0,0,0,0,0,0,0,0,0,0,0,0,0,0,0,0,0,0,0,0,0,0,0,0,0,0,0.3832,0.3831,0,0.3798,0.3798,0.3797,0.379,0.379,0.379,0.379,0.3753,0.3752,0.3751,0,0,0,0,0,0,0,0,0,0,0,0,0,0.3886,0.3885,0.3832,0.3831,0.3831,0.3798,0.3798,0.3797,0.379,0.379,0.379,0.379,0.3754,0.3752,0.3751,0,0,0,0,0,0,0,0,0,0,0,0,0,0.3859,0.3885,0.3832,0.3823,0.3822,0.3798,0.3798,0.3797,0.3789,0.379,0.379,0.3791,0.3754,0.3753,0.3751,0.3732,0,0,0.3745,0.3745,0,0,0,0,0,0,0,0,0.386,0.3857,0.3825,0.3824,0.3823,0.3799,0.3803,0.3775,0.3789,0.3802,0.379,0.3791,0.3768,0.3765,0.3758,0.3731,0.3729,0.3745,0.3744,0.3743,0.3743,0,0,0,0,0,0,0,0.3862,0.3858,0.3818,0.3824,0.3823,0.382,0.3816,0.3798,0.3783,0.3801,0.38,0.3796,0.3767,0.376,0.3757,0.3729,0.3745,0.3744,0.3742,0.3742,0.3683,0.3682,0,0,0,0,0,0,0.3866,0.386,0.382,0.3817,0.3843,0.3819,0.3815,0.3806,0.3783,0.378,0.3796,0.3796,0.3763,0.3759,0.3756,0.3732,0.3743,0.3742,0.3741,0.3683,0.3683,0.3682,0,0,0,0,0,0,0.3867,0.3862,0.3821,0.3838,0.3833,0.3817,0.3807,0.3805,0.3797,0.378,0.3777,0.3791,0.3763,0.3758,0.3738,0.373,0.3741,0.3739,0.3684,0.3683,0.3682,0.3684,0,0,0,0,0,0,0.3869,0.3863,0.3857,0.3838,0.3832,0.3805,0.3807,0.3804,0.3794,0.3794,0.3775,0.3772,0.3763,0.3741,0.3736,0.3728,0.3738,0.3684,0.3683,0.3683,0.3685,0.3683,0.3682,0,0,0,0,0,0.3871,0.3858,0.3856,0.3852,0.3824,0.3804,0.3801,0.3791,0.3794,0.3787,0.3775,0.3772,0.3732,0.3739,0.3734,0.3725,0.3685,0.3684,0.3683,0.3685,0.3684,0.3682,0,0,0,0,0,0,0.3876,0.3856,0.3854,0.3835,0.3822,0.3803,0.3794,0.379,0.3775,0.3776,0.3764,0.376,0.374,0.373,0.3738,0.3705,0.3708,0.3706,0.3712,0.371,0.3709,0.3712,0.3736,0,0,0,0,0,0.3875,0.3862,0.3845,0.383,0.3823,0.381,0.3801,0.3795,0.378,0.3774,0.3761,0.3746,0.373,0.372,0.3704,0.3683,0.3678,0.3674,0.3673,0.3672,0.367,0.3657,0.3655,0.3678,0.3678,0.3679,0,0,0.3873,0.386,0.3852,0.383,0.3819,0.3805,0.3805,0.379,0.3778,0.3772,0.3752,0.3742,0.3724,0.3703,0.3693,0.3694,0.3663,0.3671,0.367,0.3669,0.3656,0.3653,0.3651,0.3678,0.3678,0.3678,0,0,0.3861,0.3851,0.3837,0.3825,0.3808,0.3799,0.3796,0.3778,0.3771,0.3751,0.3745,0.3731,0.3704,0.3691,0.3681,0.3663,0.3659,0.3658,0.3652,0.3639,0.3637,0.3635,0.3628,0.3625,0.3656,0.3656,0.3656,0,0.386,0.3839,0.383,0.3814,0.3804,0.3798,0.3783,0.3772,0.375,0.3743,0.3745,0.371,0.3697,0.3672,0.3668,0.366,0.3655,0.366,0.3638,0.3637,0.3635,0.3627,0.3624,0.3656,0.3656,0.3656,0.3656,0,0.3838,0.3823,0.3813,0.3793,0.3782,0.3767,0.3754,0.3744,0.3738,0.3729,0.3707,0.3692,0.3673,0.3666,0.3661,0.364,0.3641,0.3641,0.3644,0.3633,0.3625,0.3622,0.3656,0.3656,0.3656,0.3656,0,0,0.3829,0.3803,0.38,0.379,0.377,0.3758,0.3742,0.3723,0.3714,0.3699,0.3684,0.366,0.366,0.3648,0.3641,0.363,0.3614,0.363,0.363,0.3627,0.3589,0.3589,0.3586,0.3612,0.3611,0.3611,0.359,0,0.3814,0.3786,0.3777,0.3753,0.3738,0.3731,0.3716,0.3702,0.3692,0.3677,0.3666,0.3649,0.365,0.3643,0.3631,0.3619,0.3606,0.362,0.3596,0.3596,0.36,0.3582,0.3582,0.3563,0.3587,0.3587,0.3586,0,0.3793,0.3778,0.3753,0.3734,0.3727,0.3715,0.3696,0.3682,0.3665,0.3659,0.3645,0.3639,0.362,0.3624,0.3597,0.3607,0.3596,0.3589,0.3588,0.3584,0.359,0.3577,0.3557,0.3554,0.3582,0.3582,0.3583,0,0.3787,0.3761,0.3742,0.3734,0.3712,0.3703,0.3693,0.3676,0.3665,0.3648,0.3641,0.3622,0.3611,0.3596,0.3584,0.3588,0.3557,0.3561,0.355,0.355,0.3543,0.3544,0.352,0.3538,0.3538,0.3538,0.3538,0,0.3771,0.3756,0.3739,0.3728,0.3709,0.3698,0.368,0.367,0.3655,0.364,0.3632,0.3618,0.3603,0.3587,0.3577,0.3555,0.3551,0.3544,0.3541,0.3544,0.3545,0.3537,0.3537,0.3538,0.3538,0.3538,0.3538,0,0.3762,0.3751,0.3729,0.371,0.3704,0.3692,0.3674,0.3662,0.3652,0.3633,0.3627,0.3611,0.3591,0.3577,0.3551,0.3545,0.3521,0.3519,0.3527,0.3525,0.3514,0.3515,0.3484,0.3479,0.3501,0.3501,0.3501,0,0.3753,0.3741,0.372,0.3709,0.37,0.3683,0.3672,0.366,0.3648,0.3627,0.3616,0.3596,0.3579,0.3547,0.3532,0.3511,0.3508,0.3499,0.3505,0.3508,0.3507,0.3507,0.3505,0.3498,0.3497,0.3497,0.3497,0,0.3736,0.3731,0.3715,0.3697,0.3683,0.3668,0.3653,0.3645,0.363,0.3616,0.3596,0.3583,0.3557,0.3536,0.3514,0.3502,0.3496,0.3495,0.3491,0.3494,0.3498,0.3494,0.3523,0.3496,0.3496,0.3496,0.3496,0.3496,0.3726,0.3714,0.3697,0.3679,0.3667,0.3652,0.3639,0.3627,0.361,0.3588,0.3582,0.356,0.3542,0.3512,0.3499,0.3481,0.3482,0.3477,0.3475,0.3474,0.3473,0.3502,0.3477,0.3477,0.3477,0.3477,0.3477,0,0.3708,0.3696,0.368,0.3659,0.3645,0.3642,0.3624,0.3612,0.3593,0.3577,0.356,0.3536,0.3515,0.3498,0.3476,0.3465,0.3461,0.3459,0.346,0.3457,0.3474,0.3479,0.3462,0.3462,0.3462,0.3462,0.3462,0.3462,0.3697,0.3677,0.3669,0.3641,0.363,0.3609,0.3599,0.3585,0.3572,0.3545,0.3529,0.3518,0.35,0.3477,0.3457,0.3453,0.3444,0.3442,0.3437,0.3454,0.3456,0.3457,0.3462,0.3441,0.3441,0.342,0.342,0.342]}]]